, FL

(GMT )
Crestview

Weather History for KEGI - March, 2012

Change the Weather History Date:

Thursday, March 8, 2012

  Actual Average Record
Temperature  
Mean Temperature 67 °F -  
Max Temperature 75 °F - - ()
Min Temperature 59 °F - - ()
Cooling Degree Days 2    
Growing Degree Days 17 (Base 50)    
Moisture  
Dew Point 61 °F    
Average Humidity 79    
Maximum Humidity 95    
Minimum Humidity 64    
Precipitation  
Precipitation 0.00 in - - ()
Sea Level Pressure  
Sea Level Pressure 30.23 in    
Wind  
Wind Speed 9 mph (SE)    
Max Wind Speed 18 mph    
Max Gust Speed 23 mph    
Visibility 10 miles    
Events      
Averages and records for this station are not official NWS values.
T = Trace of Precipitation, MM = Missing Value Source: NWS Daily Summary

Daily Weather History Graph

Daily Weather History Graph

Search for Another Location

Airport or City:

Trip Planner

Search our weather history database for the weather conditions in past years. The results will help you decide how hot, cold, wet, or windy it might be!

Date:

Astronomy

Mar. 08, 2012 Rise Set
Actual Time 6:03 AM CST 5:50 PM CST
Civil Twilight 5:39 AM CST 6:14 PM CST
Nautical Twilight 5:11 AM CST 6:41 PM CST
Astronomical Twilight 4:43 AM CST 7:09 PM CST
Moon 6:29 PM CST (3/8) 5:52 AM CST (3/8)
Length of Visible Light 12h 34m
Length of Day
11h 46m
Full, 100% of the Moon is Illuminated
Mar 8
Full
Mar 14
Last Quarter
Mar 22
New
Mar 30
First Quarter
Apr 6
Full

Hourly Weather History & Observations

Time (CST) Temp. Dew Point Humidity Pressure Visibility Wind Dir Wind Speed Gust Speed Precip Events Conditions
12:55 AM 63.0 °F 51.6 °F 66% 30.27 in 10.0 mi East 9.2 mph - N/A   Scattered Clouds
1:55 AM 62.1 °F 52.3 °F 70% 30.25 in 10.0 mi ESE 8.1 mph - N/A   Partly Cloudy
2:55 AM 60.4 °F 53.2 °F 77% 30.24 in 10.0 mi Variable 6.9 mph - N/A   Clear
3:55 AM 60.6 °F 54.5 °F 80% 30.23 in 10.0 mi ESE 8.1 mph - N/A   Clear
4:55 AM 59.9 °F 54.9 °F 83% 30.26 in 10.0 mi ESE 6.9 mph - N/A   Partly Cloudy
5:55 AM 60.4 °F 56.1 °F 86% 30.27 in 10.0 mi East 4.6 mph - N/A   Partly Cloudy
6:55 AM 60.8 °F 56.8 °F 87% 30.27 in 10.0 mi ESE 8.1 mph - N/A   Clear
7:55 AM 64.6 °F 58.5 °F 80% 30.28 in 10.0 mi SE 9.2 mph 17.3 mph N/A   Clear
8:32 AM 68.0 °F 59.0 °F 73% 30.27 in 10.0 mi SE 8.1 mph 16.1 mph N/A   Scattered Clouds
8:55 AM 69.4 °F 60.6 °F 73% 30.29 in 10.0 mi SSE 13.8 mph 19.6 mph N/A   Mostly Cloudy
9:37 AM 73.4 °F 62.6 °F 69% 30.27 in 10.0 mi SSE 16.1 mph 18.4 mph N/A   Mostly Cloudy
9:55 AM 73.0 °F 61.9 °F 68% 30.29 in 10.0 mi SE 15.0 mph 21.9 mph N/A   Mostly Cloudy
10:55 AM 74.8 °F 62.6 °F 66% 30.28 in 10.0 mi SSE 16.1 mph 23.0 mph N/A   Mostly Cloudy
11:55 AM 72.9 °F 62.4 °F 70% 30.26 in 10.0 mi SSE 13.8 mph - N/A   Mostly Cloudy
12:34 PM 75.2 °F 62.6 °F 65% 30.22 in 10.0 mi South 15.0 mph - N/A   Mostly Cloudy
12:55 PM 75.7 °F 63.0 °F 64% 30.22 in 10.0 mi SSE 13.8 mph 20.7 mph N/A   Scattered Clouds
1:55 PM 73.6 °F 62.8 °F 69% 30.20 in 10.0 mi South 18.4 mph 21.9 mph N/A   Mostly Cloudy
2:55 PM 72.3 °F 62.4 °F 71% 30.19 in 10.0 mi SE 12.7 mph - N/A   Mostly Cloudy
3:49 PM 71.6 °F 62.6 °F 73% 30.20 in 10.0 mi South 12.7 mph - N/A   Mostly Cloudy
3:55 PM 71.6 °F 63.0 °F 74% 30.20 in 10.0 mi South 13.8 mph - N/A   Mostly Cloudy
4:26 PM 68.0 °F 62.6 °F 83% 30.20 in 10.0 mi SSE 10.4 mph - N/A   Overcast
4:55 PM 67.5 °F 63.0 °F 85% 30.21 in 10.0 mi SSE 10.4 mph - N/A   Overcast
5:55 PM 67.1 °F 63.1 °F 87% 30.20 in 10.0 mi SSE 4.6 mph - N/A   Mostly Cloudy
6:40 PM 66.2 °F 62.6 °F 88% 30.20 in 10.0 mi SE 3.5 mph - N/A   Scattered Clouds
6:55 PM 65.7 °F 62.8 °F 90% 30.20 in 10.0 mi SE 3.5 mph - N/A   Mostly Cloudy
7:55 PM 65.5 °F 62.8 °F 91% 30.20 in 10.0 mi SSE 4.6 mph - N/A   Scattered Clouds
8:15 PM 64.4 °F 62.6 °F 94% 30.20 in 10.0 mi SE 5.8 mph - N/A   Mostly Cloudy
8:55 PM 66.0 °F 63.3 °F 91% 30.19 in 10.0 mi SSE 6.9 mph - N/A   Mostly Cloudy
9:55 PM 66.0 °F 63.3 °F 91% 30.18 in 10.0 mi SSE 6.9 mph - N/A   Overcast
10:55 PM 66.0 °F 63.3 °F 91% 30.17 in 10.0 mi SSE 5.8 mph - N/A   Mostly Cloudy
11:55 PM 64.4 °F 63.0 °F 95% 30.16 in 10.0 mi South 5.8 mph - N/A   Mostly Cloudy